Regional Weather Roundup
Issued by NWS San Angelo, TX

Home | Current Version | Previous Version | Text Only | Print | Product List | Glossary On
Versions: 1 2 3 4 5 6 7 8 9 10 11 12 13 14 15 16 17 18 19 20 21 22 23 24 25 26 27 28 29 30 31 32 33 34 35 36 37 38 39 40 41 42 43 44 45 46 47 48 49 50
000
ASUS44 KSJT 210910
RWRSJT
WEST CENTRAL TEXAS REGIONAL WEATHER ROUNDUP
NATIONAL WEATHER SERVICE SAN ANGELO TX
400 AM CDT FRI JUL 21 2017

NOTE: "FAIR" INDICATES FEW OR NO CLOUDS BELOW 12,000 FEET WITH NO
SIGNIFICANT WEATHER AND/OR OBSTRUCTIONS TO VISIBILITY.

TXZ049-054-064>066-071>073-076>078-098-099-113-114-127-128-139-140-
154-155-168>170-211000
...LOCATIONS ACROSS WEST CENTRAL TEXAS...

CITY           SKY/WX    TMP DP  RH WIND       PRES   REMARKS
SAN ANGELO     CLEAR     77  60  55 S6        30.02F
ABILENE        CLEAR     77  63  61 S8        30.02F
DYESS AFB      CLEAR     78  63  61 S9        30.01S
JUNCTION       CLEAR     80  70  71 S7        30.05F
SWEETWATER     CLEAR     77  59  53 S9        30.07F
BROWNWOOD      MOCLDY    79  66  65 S6        30.02F
COLEMAN        SUNNY     80  63  57 S8        30.04S
SONORA         CLEAR     81  70  69 S8        30.10S
OZONA          FAIR     N/A N/A N/A S12G17    30.09S
BRADY          NOT AVBL
$$

TEXAS PANHANDLE/OKLAHOMA PANHANDLE

CITY           SKY/WX    TMP DP  RH WIND       PRES   REMARKS
AMARILLO       CLEAR     73  57  57 S12       30.08F
BORGER         CLEAR     79  56  45 S12       30.03F
CANADIAN       CLEAR     79  63  57 S13       30.00S
DALHART        CLEAR     68  54  60 S9        30.08F
DUMAS          SUNNY     73  54  51 S9        30.07S
GUYMON         NOT AVBL
HEREFORD       SUNNY     73  56  55 SW9       30.11S
PAMPA          SUNNY     76  58  53 S10       30.06F
PERRYTON       CLEAR     80  60  50 S10       30.01S
$$

SOUTHERN PANHANDLE/SOUTH PLAINS/ROLLING PLAINS

CITY           SKY/WX    TMP DP  RH WIND       PRES   REMARKS
LUBBOCK        PTCLDY    79  54  41 SW15      30.08F
SNYDER         CLEAR     78  59  52 S5        30.05F
CHILDRESS      CLEAR     79  62  56 S9        30.00F
SEMINOLE       SUNNY     72  55  54 CALM      30.10F
$$

PERMIAN BASIN

CITY           SKY/WX    TMP DP  RH WIND       PRES   REMARKS
MIDLAND        CLEAR     77  55  46 SE5       30.06F
ODESSA         CLEAR     79  57  46 SE8       30.07F
WINK           CLEAR     78  57  48 SE10      30.02F
$$

FAR WEST/SOUTHWEST MOUNTAINS/TRANS PECOS

CITY           SKY/WX    TMP DP  RH WIND       PRES   REMARKS
ALPINE         MOSUNNY   71  60  68 CALM      30.21S
DRYDEN           N/A     75  64  68 NE6       30.00F
EL PASO        MOCLDY    72  67  84 E5        30.09F
FORT STOCKTON  CLEAR     74  62  66 S5        30.05F
GUADALUPE PASS CLEAR     72  55  55 CALM      30.21F
MARFA          MOCLDY    64  61  90 N3        30.20F
PECOS          SUNNY     75  58  55 SE5       30.02F
$$

DALLAS/FORT WORTH METROPLEX

CITY           SKY/WX    TMP DP  RH WIND       PRES   REMARKS
DFW AIRPORT    CLEAR     84  72  67 S8        29.98F
FTW MEACHAM    CLEAR     83  72  69 S9        29.99F
DAL-EXECUTIVE  CLEAR     82  72  71 S6        29.99F
GRAND PRAIRIE  CLEAR     83  70  64 S8        30.01F
ADDISON        CLEAR     84  71  64 S6        30.02S
MESQUITE       SUNNY     76  73  90 CALM      30.01S
LANCASTER      SUNNY     78  72  80 CALM      30.01S
$$

NORTH CENTRAL TEXAS

CITY           SKY/WX    TMP DP  RH WIND       PRES   REMARKS
SHRMAN/DENISON SUNNY     78  71  77 S6        30.01S
GAINESVILLE    CLEAR     77  69  77 CALM      30.01F
BRIDGEPORT     MOSUNNY   76  68  76 CALM      30.02S
DENTON         CLEAR     79  72  79 S6        29.99F
WAXAHACHIE     MOSUNNY   77  72  84 CALM      30.02F
GRANBURY       SUNNY     82  70  68 SE7       30.01F
$$

WESTERN NORTH TEXAS

CITY           SKY/WX    TMP DP  RH WIND       PRES   REMARKS
WICHITA FALLS  PTCLDY    80  69  69 S13       29.97F
VERNON         SUNNY     80  62  53 S5        29.99S
BRECKENRIDGE   SUNNY     82  64  54 S9        29.99F
COMANCHE       CLEAR     76  67  76 SE7       30.03S
$$

CENTRAL AND SOUTH CENTRAL TEXAS

CITY           SKY/WX    TMP DP  RH WIND       PRES   REMARKS
AUSTIN/BERGSTM CLEAR     76  73  91 S5        30.01F
WACO           CLEAR     81  73  76 S12       30.00F
HILLSBORO      SUNNY     81  73  77 S7        30.01F
TEMPLE         CLEAR     80  73  79 S9        30.02S
KILLEEN-GRAY   CLEAR     79  68  69 S6        30.01F
FORT HOOD      CLEAR     79  69  70 S8        29.99F
GEORGETOWN     NOT AVBL
LAGO VISTA     FAIR      80  70  71 S6        30.05F
SAN MARCOS     CLEAR     77  70  78 S3        30.03F
NEW BRAUNFELS  CLEAR     75  72  90 SW5       30.00F
RANDOLPH AFB   CLEAR     78  77  97 S5        30.02F
SAN ANTONIO    CLEAR     79  72  79 S7        30.03F
STINSON        CLEAR     79  72  79 SE3       30.00F
PLEASANTON     NOT AVBL
LA GRANGE      CLEAR     78  77  94 CALM      30.00S
GIDDINGS       SUNNY     77  74  88 CALM      30.02F
$$

EAST TEXAS

CITY           SKY/WX    TMP DP  RH WIND       PRES   REMARKS
PARIS            N/A     77  74  90 CALM        N/A
CLARKSVILLE    NOT AVBL
TYLER          CLEAR     78  75  90 S6        30.02S
LONGVIEW       CLEAR     77  75  93 S3        30.01S
PALESTINE      SUNNY     77  74  90 CALM      30.03S
NACOGDOCHES      N/A     75  73  94 CALM      30.01S
$$

TEXAS HILL COUNTRY AND EDWARDS PLATEAU

CITY           SKY/WX    TMP DP  RH WIND       PRES   REMARKS
LLANO          SUNNY     81  68  65 CALM      30.05F
HORSESHOE BAY  FAIR      79  70  72 CALM      30.03F
KERRVILLE      CLEAR     76  72  85 SE3       30.07F
FREDERICKSBRG  CLEAR     77  66  70 S6        30.06F
ROCKSPRINGS      N/A     77  75  94 S13       30.10F
HONDO          CLEAR     79  71  76 E6        30.02F
UVALDE         SUNNY     77  71  82 CALM      30.02F
DEL RIO        CLEAR     82  69  64 E6        29.97S
$$

SOUTHEAST TEXAS

CITY           SKY/WX    TMP DP  RH WIND       PRES   REMARKS
COLLEGE STN    CLEAR     78  74  87 S5        30.01F
CALDWELL       NOT AVBL
CROCKETT       SUNNY     75  73  94 CALM      30.05S
BRENHAM        CLEAR     77  76  97 CALM      30.02S
HUNTSVILLE     CLEAR     80  74  81 S3        30.02S
CONROE         CLEAR     74  72  93 CALM      30.02S
HOUSTON BUSH   PTCLDY    80  74  81 CALM      30.00F
HOUSTON HOBBY  PTCLDY    80  74  81 CALM      30.00F
PERLAND        PTCLDY    79  74  84 CALM      30.02S
WHARTON        SUNNY     75  73  92 CALM      30.01F
$$

THE UPPER TEXAS COAST

CITY           SKY/WX    TMP DP  RH WIND       PRES   REMARKS
ORANGE         SUNNY     76  76 100 CALM      30.03S FOG
PORT ARTHUR    PTCLDY    77  75  93 CALM      30.00F
GALVESTON      PTCLDY    83  78  85 W5        30.00F
ANGLETON       PTCLDY    76  75  97 CALM      30.00F
BAY CITY       SUNNY     77  76  96 CALM      30.00F
$$

TEXAS COASTAL BEND, RIO GRANDE PLAINS DEEP SOUTH TEXAS

CITY           SKY/WX    TMP DP  RH WIND       PRES   REMARKS
VICTORIA       PTCLDY    79  76  90 S3        30.00F
BEEVILLE       FAIR     N/A N/A N/A S5        30.00F
ROCKPORT       CLEAR     83  75  77 S6        29.98F
PORT ARANSAS   PTSUNNY   83  77  80 S15       29.98F
PORT LAVACA    SUNNY     78  75  90 CALM      30.00S
CORPUS CHRISTI PTCLDY    77  77 100 S6        29.98F
KINGSVILLE NAS PTCLDY    79  78  97 MISG      29.98F
COTULLA        CLEAR     80  70  71 SE7       29.98F
LAREDO         CLEAR     81  70  69 SE10      29.98F
BROWNSVILLE    CLEAR     78  77  96 S7        29.99F
PORT ISABEL    CLEAR     81  78  91 S6        29.98F
HEBBRONVILLE   SUNNY     75  72  88 S5        30.00F
MCALLEN        CLEAR     81  76  84 SE9       29.98F
WESLACO        CLEAR     79  75  86 S8        29.97F
FALFURRIAS     MOSUNNY   77  75  93 SE3       29.98F
EDINBURG       SUNNY     81  75  82 S7        29.98F
$$




USA.gov is the U.S. government's official web portal to all federal, state and local government web resources and services.